Location: Newark
(27.5900°N, 83.4900°E)
Time: 08:58:31
(UTC+00:00)

Hubble Space Telescope - Pass Details

Date: 12 December 2019
Orbit: 536 x 540 km, 28.5° (Epoch: 25 January)

Event Time Altitude Azimuth Distance (km) Brightness Sun altitude
Exits shadow 23:01:29 16° 174° (S) 1,439 3.1 -27.1°
Maximum altitude 23:02:35 18° 154° (SSE) 1,365 3.2 -26.8°
Drops below altitude 10° 23:05:23 10° 111° (ESE) 1,784 4.4 -26.2°
Sets 23:08:13 0° 92° (E) 2,676 5.6 -25.6°
